Regional Weather Roundup
Issued by NWS

Home | Current Version | Previous Version | Graphics & Text | Print | Product List | Glossary On
Versions: 1 2 3 4 5 6 7 8 9 10 11 12 13 14 15 16 17 18 19 20 21 22 23 24 25 26 27
000
ASUS45 KCYS 162110
RWRWY

WYOMING REGIONAL WEATHER ROUNDUP
NATIONAL WEATHER SERVICE CHEYENNE WY
200 PM MST FRI FEB 16 2018

NOTE:  "FAIR" INDICATES FEW OR NO CLOUDS BELOW 12,000 FEET
WITH NO SIGNIFICANT WEATHER AND/OR OBSTRUCTIONS TO VISIBILITY.

WYZ001-162200-
YELLOWSTONE NATIONAL PARK

CITY           SKY/WX    TMP DP  RH WIND       PRES   REMARKS
LK YELLOWSTONE   N/A     14   8  77 VRB5      29.94F WCI   6
W YELLOWSTONE  NOT AVBL

$$
WYZ002>013-054>058-071-098>099-162200-
NORTHERN WYOMING

CITY           SKY/WX    TMP DP  RH WIND       PRES   REMARKS
JACKSON        LGT SNOW  21  16  81 S23       30.01F WCI   5
CODY           FAIR      35   7  31 W23G35    29.85F WCI  23
GREYBULL       FAIR      20  10  65 CALM      29.93F
WORLAND        PTSUNNY   19  12  74 NW5       29.92F WCI  12
SHERIDAN       PTSUNNY   30  12  47 N3        29.84F
BUFFALO        FAIR      32   6  33 SE5       29.83F WCI  27
GILLETTE       FAIR      34  14  43 NW5       29.84F WCI  30
HULETT         FAIR      32  12  43 MISG      29.87F
NEWCASTLE      FAIR      30  16  55 SE7       29.90F WCI  23

$$
WYZ014>020-022>026-101>103-162200-
CENTRAL WYOMING

CITY           SKY/WX    TMP DP  RH WIND       PRES   REMARKS
BIG PINEY      CLOUDY    26   3  37 S7        30.00F WCI  18
PINEDALE       CLOUDY    23   7  50 CALM      30.01F
DUBOIS           N/A    N/A N/A N/A MISG        N/A
LANDER         FAIR      30  10  43 VRB3      29.87F
RIVERTON       FAIR      32   8  36 W6        29.87F WCI  26
CASPER         FAIR      38   9  30 SW37G44   29.86F WCI  25
DOUGLAS        FAIR      40  14  34 W30G40    29.85F WCI  28

$$
WYZ021-027>030-104>119-162200-
SOUTHERN WYOMING

CITY           SKY/WX    TMP DP  RH WIND       PRES   REMARKS
EVANSTON       FAIR      31  10  41 SW23G29   30.07F WCI  18
FORT BRIDGER   FAIR      32   8  37 W25G36    30.08F WCI  19
ROCK SPRINGS   CLOUDY    33   4  29 W30G36    30.02F WCI  19
DIXON          FAIR      28  14  57 SW7       30.11F WCI  20
RAWLINS        FAIR      30   6  36 SW25G35   30.00F WCI  16
SARATOGA       CLOUDY    30   9  40 S9        30.00F WCI  22
LARAMIE        FAIR      31   9  39 W7        29.93F WCI  24
CHEYENNE       FAIR      37  12  35 S14       29.90F WCI  28
TORRINGTON     FAIR      43  20  39 S16       29.92F
PINE BLUFFS    FAIR      37  18  44 S15G22    29.95F WCI  28

$$




USA.gov is the U.S. government's official web portal to all federal, state and local government web resources and services.